Wind_Speed
12 12 12 13 13 13 14 14 15 16 16 17 18 19 20 21 22 23 24 25 26 27 27 28 28 28 28 27 27 27 27 28 29 30 31 32 32 33 33 32 31 31 31 31 31 32 33 34 35 37 38 40 40 41 42 43 44 45 48 50 51 50 51 52 52 52 52 53 53 52 51 50 50 48 46 42 40 39 37 38 41 42 38 34 34 34 35 37
12 12 13 13 13 14 14 15 15 16 16 17 18 19 20 21 23 24 25 26 27 27 28 28 28 28 27 27 27 27 28 29 30 31 32 33 33 33 32 32 31 31 31 31 32 32 33 34 35 36 37 39 40 41 42 42 43 45 48 49 50 50 51 52 51 51 52 54 53 52 51 51 51 49 47 46 43 42 40 38 37 37 40 39 35 35 37 38
12 12 12 13 13 13 14 14 15 15 16 17 18 19 20 21 23 24 25 26 26 27 27 27 27 26 26 26 26 27 28 30 31 32 32 32 32 32 31 31 31 31 31 31 32 32 33 33 34 35 36 38 39 40 41 42 43 45 47 48 48 50 51 49 49 50 51 53 53 53 51 49 50 48 47 48 46 46 41 38 39 37 39 41 38 37 37 36
11 11 12 12 12 12 13 14 14 15 16 17 18 19 20 21 22 22 23 24 25 25 25 25 25 25 25 26 26 28 30 32 32 32 32 32 32 31 30 30 31 31 31 31 32 32 33 33 34 35 35 36 38 39 40 42 42 44 46 47 48 49 49 47 47 49 49 50 51 52 51 49 50 45 43 43 45 46 41 37 41 42 43 43 42 40 38 35
10 10 11 11 11 12 12 13 14 15 16 17 17 18 19 20 21 21 22 23 23 24 24 24 25 25 26 26 27 29 31 33 32 32 32 31 31 30 30 30 30 31 31 31 32 32 33 33 34 35 35 36 37 38 39 41 42 43 44 46 47 48 48 46 47 48 48 49 49 50 50 50 50 44 39 39 41 43 40 40 42 44 45 44 46 46 42 37
10 10 10 11 11 12 13 13 14 15 16 17 18 19 20 21 22 22 23 23 24 24 24 25 25 25 26 27 29 30 32 32 31 31 31 30 29 30 30 31 31 31 31 32 32 32 33 33 34 35 35 36 37 37 38 40 41 42 43 46 47 48 47 46 46 46 47 48 49 49 48 50 50 48 44 41 42 42 41 43 44 47 47 43 46 49 46 41
10 10 10 11 12 13 13 14 15 16 17 18 19 21 22 23 24 24 24 25 25 25 25 25 25 26 27 29 30 31 32 31 31 30 29 29 29 30 30 31 32 32 32 32 32 32 32 33 34 34 34 34 34 34 36 37 39 40 42 44 46 47 48 47 47 47 48 49 49 48 49 50 51 51 49 46 45 43 43 45 46 50 50 45 45 49 46 41
10 10 11 11 12 13 14 16 17 18 19 20 22 23 24 25 25 25 25 25 25 25 25 25 26 27 28 30 30 31 30 30 30 30 29 29 30 31 31 32 32 32 32 32 31 32 32 33 32 31 31 31 32 33 35 36 37 39 40 42 44 46 46 48 49 49 50 51 50 51 52 52 52 53 51 50 49 44 43 46 47 51 52 48 46 47 43 36
10 11 11 12 13 14 16 17 19 20 21 22 23 24 25 25 25 25 25 25 25 25 26 26 27 28 29 30 30 30 29 29 29 30 30 31 31 32 32 32 32 32 31 30 30 31 31 30 29 29 29 30 30 32 33 34 35 36 37 39 41 42 43 44 46 47 49 51 51 51 53 53 53 55 52 51 51 47 45 47 48 52 53 51 49 48 45 37
11 12 12 13 14 16 18 19 20 21 22 23 24 25 25 25 25 25 25 25 26 26 26 27 28 29 30 31 30 29 29 28 29 30 31 32 33 33 32 32 32 30 29 28 29 29 28 27 27 26 26 27 27 28 30 30 31 31 32 34 36 36 36 38 39 40 43 46 48 49 51 52 52 55 53 50 52 50 47 49 50 51 52 53 54 53 51 46
12 13 13 14 16 18 19 20 21 22 23 24 24 24 24 24 25 25 25 25 26 26 27 28 29 30 30 30 30 29 29 29 30 30 31 32 32 32 32 31 29 28 27 27 27 26 25 24 24 24 23 23 24 24 25 27 27 27 28 29 29 30 30 31 32 32 34 37 41 45 47 49 50 53 53 49 52 54 51 51 52 51 50 52 56 57 54 51
13 14 15 16 18 19 20 22 22 23 24 24 24 24 24 24 25 25 25 26 27 27 28 29 30 30 30 30 29 29 30 31 32 32 33 34 32 31 31 30 27 26 25 25 24 23 22 21 21 20 20 19 20 21 22 23 24 24 25 26 24 26 27 27 27 28 30 31 31 36 39 41 43 47 50 49 50 55 56 55 54 54 53 52 55 59 58 55
15 15 16 18 19 20 22 23 23 24 24 24 23 24 24 25 25 26 26 26 27 28 30 30 30 29 29 30 30 30 31 32 34 34 34 35 34 30 28 28 26 23 22 22 20 19 18 18 17 16 16 15 16 16 17 19 20 19 21 23 22 23 24 23 23 24 27 29 26 29 35 37 38 40 43 47 49 53 59 60 58 57 56 54 54 57 60 60
16 17 18 19 20 21 22 23 23 23 23 23 23 24 25 26 26 27 27 27 27 29 30 31 30 29 29 30 31 31 32 33 34 35 35 35 33 29 24 23 23 20 19 18 17 16 15 14 14 13 12 11 12 11 12 13 14 15 15 17 18 19 21 21 22 23 23 25 23 26 36 38 37 38 38 41 48 51 55 63 64 61 57 56 55 54 57 60
17 17 19 20 21 22 22 23 23 23 23 23 24 24 26 27 27 27 27 27 28 30 31 31 30 29 29 30 31 32 33 34 34 35 35 34 31 27 22 19 19 17 16 16 14 13 13 12 11 10 9 8 9 8 9 11 12 13 13 14 16 17 18 20 22 25 24 23 24 27 34 34 33 36 36 38 45 51 54 59 66 65 60 57 54 53 57 60
18 19 20 21 21 21 22 22 22 23 23 24 24 25 26 27 27 27 27 28 29 30 31 31 31 29 29 30 31 33 34 34 34 33 31 29 26 23 20 17 15 14 14 13 12 11 11 10 10 9 8 8 9 9 9 10 11 13 14 14 16 17 17 18 20 24 27 27 26 30 34 32 30 32 34 35 41 51 56 57 62 64 63 61 56 54 59 63
19 20 20 20 21 21 22 23 23 23 24 26 26 26 26 27 27 27 27 28 29 31 31 32 31 29 30 32 33 33 35 35 34 33 28 24 22 20 19 16 14 12 12 11 11 11 10 9 10 10 10 10 11 11 10 10 11 14 15 15 16 16 16 15 16 20 26 29 28 31 36 35 34 35 36 38 41 49 57 58 60 61 62 63 61 60 61 65
20 20 20 20 21 22 23 24 25 25 25 26 27 27 27 27 27 26 27 29 30 31 31 31 30 29 31 33 34 35 36 36 34 32 27 22 21 19 17 14 12 11 10 10 11 10 9 9 11 12 12 12 13 13 12 12 14 16 17 17 17 17 15 13 11 13 19 26 29 32 36 36 36 37 38 41 43 47 54 58 60 59 59 62 64 67 66 65
20 20 21 21 22 23 24 25 27 27 27 28 28 28 27 26 26 26 28 29 30 31 31 30 29 29 31 34 36 37 38 35 30 28 24 21 19 16 13 11 10 10 9 10 10 9 8 10 12 14 14 14 15 15 15 16 17 18 17 18 18 17 15 14 12 12 14 19 25 30 34 34 34 37 38 39 42 45 49 54 58 58 59 61 63 69 71 68
21 21 22 23 24 25 26 27 28 29 29 28 29 29 29 27 27 28 28 29 30 31 31 29 29 29 31 34 36 37 37 31 25 23 22 18 16 12 11 10 9 10 9 10 10 8 8 10 12 14 15 14 15 16 18 18 19 18 19 19 19 18 16 15 15 15 16 20 21 25 32 33 33 35 37 39 40 43 46 49 54 56 59 62 63 68 71 71
22 23 24 25 26 27 27 28 29 29 29 28 28 29 28 27 27 28 29 29 29 30 30 29 28 30 30 32 35 35 33 27 22 22 21 18 14 10 10 10 10 10 9 10 10 8 6 7 12 14 15 15 16 17 19 19 19 20 21 21 20 19 20 19 18 16 18 23 23 22 28 32 33 34 35 37 39 42 45 47 50 53 56 62 66 68 68 69
23 25 26 26 27 28 29 29 30 30 29 28 28 28 28 27 27 28 29 30 30 30 30 29 29 30 29 31 34 34 32 27 22 20 19 16 12 9 7 8 8 9 9 9 10 9 8 10 13 14 16 17 17 18 19 20 21 22 23 23 21 18 21 22 21 20 20 24 26 24 25 27 30 35 38 39 39 41 44 45 48 51 54 60 68 71 70 69
25 27 27 28 28 29 29 30 31 31 31 30 30 29 30 29 28 29 29 30 30 30 29 28 28 28 30 32 34 33 30 26 22 17 15 13 11 9 7 6 7 7 7 7 8 9 11 14 15 16 18 19 19 19 20 21 22 23 23 24 24 20 22 24 22 23 24 27 28 27 28 27 26 30 36 42 43 42 43 44 46 49 53 57 66 72 73 72
26 28 29 30 30 30 30 31 32 32 31 30 30 29 29 29 28 28 29 30 30 29 27 27 27 29 32 34 33 30 26 23 21 17 13 12 12 10 7 6 7 5 5 6 7 9 11 15 16 17 19 20 21 20 20 22 22 23 24 25 26 24 25 26 25 25 27 29 29 30 31 29 24 24 28 35 45 48 45 44 45 47 52 55 62 70 73 74
27 29 32 32 31 31 32 32 33 33 31 30 29 29 28 27 27 27 29 30 29 28 27 27 28 31 33 34 32 30 24 20 19 15 12 12 13 11 8 7 6 6 6 7 9 11 12 15 16 16 17 18 20 20 20 23 23 23 24 24 26 26 26 26 26 26 29 30 29 30 33 28 23 24 23 23 34 45 47 47 46 46 49 52 57 65 72 75
27 30 33 33 33 33 33 34 34 34 32 30 29 28 28 27 27 27 28 30 29 28 28 28 30 32 32 32 32 29 24 19 17 14 12 12 11 11 10 7 7 9 9 10 12 13 13 16 17 17 18 19 19 19 20 23 24 23 22 24 26 26 26 25 24 24 28 29 28 30 33 30 26 24 24 23 24 32 41 48 51 48 48 50 53 59 67 73
28 30 33 34 34 35 34 34 34 34 32 30 29 29 28 27 27 27 28 29 28 29 29 29 30 32 31 31 30 28 25 20 16 13 12 10 8 8 8 8 9 11 11 11 13 15 15 15 17 18 19 20 20 20 20 22 23 22 21 23 25 25 26 26 24 22 24 26 27 30 33 33 29 21 20 24 24 24 28 38 49 53 50 50 50 52 58 67
30 31 34 34 34 35 34 33 34 33 32 30 30 29 28 27 27 27 27 28 28 28 28 29 30 30 30 30 28 26 24 20 17 14 12 10 7 5 6 8 10 13 13 13 12 15 17 17 18 19 20 20 20 21 21 22 24 23 22 25 26 25 26 26 25 23 23 23 25 29 31 32 28 18 15 19 22 22 20 24 37 50 55 53 52 50 49 55
32 33 34 34 34 34 33 32 33 33 32 32 31 30 27 26 26 27 27 28 28 26 26 28 29 30 30 29 27 24 21 18 17 15 11 8 6 5 7 8 9 11 14 15 14 14 16 18 19 20 20 20 19 19 21 22 23 23 24 25 27 28 28 28 27 25 24 25 26 28 28 29 27 17 13 17 18 19 19 20 25 37 52 58 56 53 49 47
34 34 34 35 35 33 30 30 32 33 33 32 30 28 26 25 26 27 27 27 26 24 25 27 29 30 29 27 26 23 20 17 16 14 10 7 4 5 6 7 8 11 14 17 17 15 15 17 19 19 18 19 18 18 19 21 22 22 22 22 23 27 28 28 28 26 28 29 27 28 25 26 24 12 8 14 16 18 21 22 22 27 42 55 59 57 52 47
35 35 34 34 34 32 30 30 31 32 31 31 30 28 26 26 26 26 26 26 25 24 25 27 29 29 28 26 25 22 19 17 16 14 11 8 5 4 5 7 8 12 14 15 14 14 14 16 17 19 19 20 21 20 19 21 23 24 24 23 23 23 24 27 27 26 31 30 28 28 26 26 24 12 8 13 16 19 21 21 22 23 32 46 58 60 53 48
36 36 34 32 31 30 29 30 31 31 32 31 30 28 26 26 25 25 25 24 23 24 24 26 28 28 27 27 25 20 17 16 14 13 11 9 7 7 8 10 11 13 14 13 11 9 12 16 17 20 21 21 22 21 19 19 21 25 25 25 25 23 23 25 25 25 29 29 27 28 28 29 27 21 19 18 15 18 22 23 22 22 26 36 50 59 54 49
36 36 34 32 31 30 30 31 31 32 33 32 30 28 26 26 24 24 25 22 21 24 25 25 28 29 27 26 24 19 16 15 13 12 10 9 8 8 10 13 15 17 18 16 14 8 9 15 18 18 18 19 22 22 21 19 18 22 24 24 25 25 24 24 23 23 25 24 24 26 30 32 30 27 27 24 19 18 20 23 22 20 23 29 41 54 56 52
35 34 33 33 32 32 32 33 33 34 34 33 30 27 26 25 23 23 24 22 19 21 24 25 27 28 27 26 24 20 16 14 12 11 10 9 8 8 10 12 15 17 18 18 17 14 12 15 18 19 17 18 21 24 27 26 21 20 23 24 24 23 23 24 23 22 22 22 23 26 30 33 30 27 27 25 24 23 22 22 22 21 21 24 32 45 55 56
33 32 32 32 32 32 34 35 35 35 35 33 29 26 25 24 23 22 23 21 18 19 23 25 25 26 27 25 23 21 17 12 10 10 10 8 6 6 8 10 13 16 17 16 17 17 16 16 19 22 23 22 23 25 27 27 23 21 21 21 23 22 21 24 24 24 26 27 27 26 27 30 29 27 27 26 27 26 26 24 22 23 23 23 25 34 48 58
31 30 30 31 31 32 34 36 35 34 33 32 28 25 25 23 21 21 22 21 18 18 22 25 26 25 26 24 21 19 17 13 9 9 10 8 5 5 7 9 12 14 15 15 18 18 17 18 19 21 25 27 25 25 25 26 25 23 22 22 23 23 22 23 26 28 30 32 31 27 25 29 29 26 24 25 27 26 27 27 25 25 25 24 25 29 40 56
30 29 30 31 31 32 34 35 35 33 32 32 28 24 24 22 21 22 22 20 18 18 22 25 26 25 24 23 18 16 15 12 8 8 10 7 4 4 7 9 12 13 13 16 20 19 17 19 21 20 22 25 24 24 25 27 27 25 24 25 25 24 23 23 26 28 29 32 33 28 25 28 27 22 20 20 24 25 25 27 27 28 28 26 27 31 37 49
31 31 31 31 32 32 33 35 35 32 32 31 27 23 23 22 22 23 23 21 18 18 21 24 25 24 23 22 18 15 13 10 7 7 8 6 4 5 7 10 12 12 14 17 20 20 18 17 21 22 22 23 24 25 26 27 29 29 27 27 26 26 26 24 26 27 28 32 32 28 24 24 22 20 19 18 21 25 25 26 29 30 32 32 30 30 34 43
33 33 32 33 33 33 34 35 35 33 32 30 25 22 21 21 21 22 22 22 18 18 20 23 24 23 22 22 20 17 13 8 5 6 7 5 4 6 8 10 11 12 15 18 20 21 18 18 21 23 23 23 24 25 26 27 29 29 28 27 26 27 26 25 26 27 30 32 32 30 25 19 18 20 19 19 21 24 25 27 30 30 32 35 33 30 31 39
36 35 35 35 35 35 35 36 35 33 32 30 24 21 20 19 21 21 21 21 18 17 19 21 23 22 22 22 21 18 14 8 4 5 6 5 3 5 8 10 10 12 15 17 19 19 16 17 21 22 21 21 24 27 31 33 33 30 26 24 24 24 23 24 26 27 30 32 32 31 24 16 16 21 22 22 24 25 26 26 28 29 30 34 35 33 33 39
37 37 37 36 36 36 36 35 33 31 32 30 24 21 20 19 21 21 20 19 17 17 19 20 22 22 22 23 21 19 15 9 6 5 5 4 3 4 7 10 10 12 14 16 18 17 14 17 23 22 19 21 25 30 33 36 36 32 28 26 24 23 21 23 26 27 29 31 30 27 21 15 17 21 22 22 23 24 27 28 27 27 29 31 34 35 34 40
38 38 37 36 36 35 35 34 31 30 30 28 24 22 20 19 20 20 19 18 17 17 19 20 22 23 22 22 21 19 14 9 7 7 5 4 3 3 6 9 10 11 13 15 17 16 14 17 21 21 20 22 25 29 32 36 37 34 30 29 29 28 25 25 26 28 28 27 26 24 20 17 19 21 19 18 18 19 25 30 29 28 27 29 32 35 36 39
37 37 36 36 35 33 32 31 29 28 28 26 23 22 20 19 20 19 19 18 16 17 19 20 22 22 22 22 21 19 14 9 8 8 7 5 4 3 4 7 10 11 12 15 17 16 16 18 19 17 18 20 23 26 30 36 38 35 32 31 32 32 30 28 26 27 28 26 23 22 20 17 18 21 19 16 14 14 18 24 28 27 26 27 29 32 36 39
35 36 35 35 34 31 29 28 27 27 26 24 22 22 20 19 20 18 18 17 16 16 18 19 20 21 21 21 21 19 14 9 8 8 8 7 4 3 4 6 10 11 12 14 17 18 19 20 20 18 18 21 25 28 32 36 39 38 35 33 33 33 32 30 26 26 28 26 23 24 23 18 17 19 19 16 14 11 13 17 21 23 23 25 26 28 32 36
35 36 36 34 32 29 26 26 26 25 23 22 21 19 18 19 19 18 18 17 15 15 16 18 19 20 20 20 20 19 15 10 8 8 9 8 4 2 4 6 8 10 11 13 15 17 19 20 21 23 25 27 29 32 35 38 40 40 38 35 33 32 31 27 23 22 24 25 25 27 26 22 18 20 20 18 16 12 12 14 16 19 21 23 24 26 30 33
36 35 35 33 31 28 26 26 26 23 20 20 19 17 17 18 19 19 20 17 15 15 16 17 18 19 19 19 19 19 16 11 9 9 9 8 5 2 3 4 6 8 10 12 14 15 17 18 20 22 25 27 28 29 32 36 40 41 41 39 34 31 29 25 19 16 18 21 24 26 29 26 23 22 21 18 17 16 14 14 15 17 19 21 23 25 28 32
36 34 32 30 29 27 26 25 23 20 19 19 17 15 16 17 18 19 20 18 15 15 15 16 17 18 19 19 19 19 18 13 10 9 10 9 6 3 3 3 4 6 9 11 12 12 13 16 18 21 22 24 26 26 28 33 38 40 42 42 37 32 30 27 21 18 18 21 24 26 30 31 27 24 20 17 17 18 17 16 16 17 20 22 23 24 26 30
35 33 30 27 25 25 24 23 21 20 20 19 16 15 16 17 17 17 19 18 15 14 15 15 16 17 18 19 18 17 17 14 11 10 10 9 7 4 2 2 2 5 7 8 9 10 11 14 16 19 21 23 25 25 25 30 35 38 41 44 41 37 34 31 27 24 22 23 27 29 31 31 28 23 19 18 17 15 16 17 16 16 19 22 23 25 25 28
33 32 30 27 23 21 20 20 20 20 19 18 15 15 15 16 17 16 16 16 15 13 14 15 15 16 18 19 18 16 15 13 12 11 10 9 8 5 3 2 2 4 6 7 8 9 11 13 15 17 19 21 23 24 24 27 32 35 39 42 42 41 39 36 32 30 28 26 27 30 31 31 28 23 18 17 17 14 13 14 15 16 18 21 22 24 26 28
32 31 30 27 23 20 19 19 20 20 18 16 15 15 15 15 16 17 14 13 14 14 14 14 15 16 17 18 18 16 13 10 10 11 11 9 8 7 5 3 4 5 6 6 8 9 11 13 14 16 17 19 21 23 24 26 29 31 35 38 40 41 40 35 32 33 33 30 29 30 32 32 28 22 18 15 14 13 10 10 13 15 17 19 20 21 24 28
32 31 28 25 22 20 20 20 21 19 16 15 14 15 16 15 15 16 14 11 12 14 14 14 15 16 16 17 18 17 14 10 8 10 12 11 9 7 6 4 5 7 7 7 8 9 11 13 14 15 16 18 21 23 24 25 28 29 32 35 37 38 38 35 34 36 35 33 31 30 32 36 34 24 17 14 12 11 9 9 11 13 16 18 19 20 22 27
33 30 27 24 20 19 20 21 21 18 14 13 14 15 16 15 15 16 15 11 10 12 13 13 14 15 16 17 18 18 17 14 11 11 11 12 10 8 6 6 6 7 8 9 10 11 12 13 14 15 17 18 20 22 23 24 26 30 33 34 35 36 37 35 33 32 31 30 30 29 26 31 37 30 19 13 11 9 9 9 10 13 15 16 16 18 20 25
Wind_Direction
310 308 307 308 308 308 308 308 307 307 307 306 306 305 304 303 302 302 301 301 300 300 300 300 299 299 298 295 293 292 291 289 288 288 289 291 291 290 289 287 285 282 279 275 271 268 266 263 260 258 256 255 253 253 253 253 253 253 252 252 252 253 253 252 251 251 252 252 251 250 248 248 247 245 243 240 235 229 227 233 238 238 234 235 239 238 238 241
309 308 307 308 308 308 308 309 309 308 308 308 307 307 307 306 306 305 304 303 302 301 301 301 300 299 298 296 295 294 292 291 291 291 292 293 292 290 288 286 284 281 279 276 273 269 267 264 262 260 258 256 255 254 254 253 253 253 253 253 253 253 253 252 252 251 251 251 251 250 248 247 247 246 243 240 235 230 229 234 237 240 239 239 240 239 241 241
310 309 309 310 311 312 312 312 312 312 312 311 311 311 310 310 310 309 308 307 306 305 304 303 303 302 300 298 297 296 295 295 295 295 295 294 291 289 287 285 283 281 279 277 275 272 270 267 264 262 260 258 256 255 254 253 253 253 253 253 253 254 253 253 253 252 251 251 250 249 247 245 246 246 245 242 236 230 228 231 234 235 237 240 239 236 243 243
314 312 312 313 314 315 315 315 315 314 314 315 315 315 316 316 316 316 315 313 312 310 309 308 306 305 303 301 300 299 298 297 297 298 296 293 290 288 286 284 283 282 281 279 277 275 272 269 267 265 262 260 258 256 256 255 253 253 253 253 253 255 254 252 252 252 251 250 250 249 247 243 242 242 243 241 239 234 226 225 231 233 232 235 233 231 238 240
321 320 318 318 318 318 317 317 317 316 317 318 319 320 321 321 321 320 319 318 315 313 312 310 309 307 305 303 302 301 299 299 300 298 295 293 291 289 288 286 285 284 283 281 279 276 274 272 269 267 264 261 259 257 256 255 254 253 252 252 253 254 253 251 251 251 250 249 248 248 247 244 239 234 234 233 234 235 225 218 226 233 233 232 230 229 232 236
328 327 324 323 321 320 319 318 318 319 319 319 320 320 320 319 320 320 320 319 317 315 313 311 310 308 307 306 305 303 301 301 300 297 296 295 293 291 291 290 289 287 285 283 280 277 275 273 270 268 266 264 262 260 258 256 255 253 252 252 253 253 252 250 250 249 249 247 246 245 244 245 241 231 228 227 228 230 222 215 220 229 233 233 230 230 231 234
332 330 326 323 322 320 319 318 319 319 317 316 316 316 316 317 317 318 318 318 317 316 314 313 312 311 310 308 306 304 303 302 300 299 298 296 295 294 293 292 291 289 287 284 281 277 274 272 270 270 269 267 266 264 261 258 257 254 253 253 253 253 252 249 247 246 246 244 243 243 241 241 241 234 225 224 227 224 219 214 217 225 229 233 230 227 232 235
331 328 326 323 321 321 319 318 317 316 315 314 314 314 315 315 315 316 316 317 317 316 316 315 314 314 312 310 308 307 305 304 302 302 301 299 298 296 295 293 291 289 287 283 280 277 275 274 273 272 270 268 265 263 260 258 257 254 252 252 253 254 253 252 250 248 247 245 242 241 240 237 238 236 224 222 227 220 214 211 215 224 226 230 228 225 232 235
328 325 323 322 321 321 320 318 317 315 314 313 314 314 314 314 315 315 316 317 318 318 317 317 317 316 314 313 311 309 308 306 304 304 303 301 299 297 295 293 291 289 286 282 279 277 277 276 274 272 270 267 265 263 260 259 258 257 255 253 253 254 255 255 254 253 251 250 248 244 243 239 236 237 227 220 223 217 212 210 213 223 226 229 230 230 234 236
325 324 322 321 320 320 319 318 317 316 314 314 314 314 314 315 315 316 317 318 319 319 319 320 319 318 316 315 313 311 310 309 306 305 305 303 302 299 297 295 293 290 285 282 280 279 278 276 274 271 268 266 263 262 261 259 259 259 259 257 256 257 256 256 256 256 256 254 253 250 248 245 241 240 233 220 217 215 211 210 213 221 226 228 230 232 236 237
325 323 321 319 318 318 318 317 317 316 316 316 316 317 317 317 317 318 318 319 320 321 321 322 321 319 318 316 315 313 312 311 309 308 307 305 302 300 299 297 294 291 288 285 283 281 279 276 274 271 268 265 263 261 261 260 259 259 259 258 259 258 256 257 256 255 256 256 256 255 251 249 247 245 242 228 217 213 209 211 213 218 223 226 228 229 232 235
321 320 318 316 316 316 316 317 317 318 318 319 320 321 320 320 320 319 320 322 322 323 324 324 322 320 319 318 316 316 316 314 312 310 308 306 304 302 300 298 295 293 290 286 283 281 278 275 272 270 267 264 262 261 262 263 263 263 262 259 258 258 255 255 255 252 251 251 253 257 255 250 248 248 247 239 225 215 209 210 212 216 220 222 226 228 229 230
317 316 315 314 314 315 316 318 320 321 322 323 324 324 323 322 322 321 323 323 324 325 326 325 322 320 321 320 319 319 317 315 314 312 310 308 306 305 303 300 298 294 289 286 283 280 275 272 269 267 266 263 262 262 265 266 267 268 267 265 262 261 259 256 255 252 250 248 245 253 254 244 240 241 243 243 236 224 213 210 213 216 218 221 224 226 228 229
319 317 316 315 316 317 319 321 322 324 325 326 326 327 326 325 324 324 324 324 327 328 327 325 323 323 324 321 321 320 318 316 316 314 311 309 308 307 306 300 297 294 288 284 281 275 270 267 266 265 264 264 265 264 266 270 272 274 276 275 271 266 262 256 252 250 249 248 242 246 249 243 235 232 234 236 236 233 222 213 216 220 219 219 222 226 228 228
324 322 320 319 319 321 322 323 325 326 327 328 329 329 328 326 326 325 325 327 330 328 326 327 326 326 324 321 321 321 320 318 317 315 313 312 310 310 308 300 296 294 288 283 276 269 265 264 262 260 260 262 268 271 272 277 281 281 280 279 278 274 267 259 253 249 244 241 238 239 244 244 239 234 232 230 229 232 229 220 219 224 224 220 219 225 228 229
327 325 323 323 323 324 324 325 327 328 329 330 330 330 329 327 326 325 327 330 329 327 327 328 328 326 323 322 323 323 321 319 318 317 314 312 311 311 309 303 297 292 285 278 270 262 262 262 256 254 258 260 267 272 273 278 283 284 283 283 285 284 277 269 260 254 247 239 233 235 240 238 234 234 231 227 223 224 228 225 220 223 228 226 221 222 227 231
328 327 327 326 326 326 326 327 328 330 332 331 330 330 328 327 326 327 329 329 327 328 329 328 327 327 324 324 324 323 320 319 321 319 316 315 315 312 310 306 298 287 279 269 260 256 255 253 252 253 257 261 266 270 272 277 279 281 285 286 285 282 277 267 255 252 247 239 230 231 239 236 230 232 231 226 221 219 222 225 222 219 225 229 226 226 227 230
331 330 329 328 327 326 327 327 329 332 333 332 330 329 328 327 327 327 327 327 328 330 329 328 328 327 326 325 325 323 321 323 324 320 321 323 319 315 310 306 297 285 274 263 255 253 250 245 248 251 254 261 269 274 274 275 278 282 286 286 283 278 277 272 255 245 244 241 236 235 238 239 235 232 232 229 225 221 219 222 223 218 220 224 226 230 229 229
333 331 329 328 327 326 327 328 329 331 332 331 329 328 328 327 325 326 327 329 331 331 329 328 328 328 328 327 325 325 325 327 327 322 325 326 322 318 310 306 299 288 278 266 257 251 252 251 248 249 253 259 266 274 277 279 283 284 283 285 286 283 280 281 276 263 254 248 244 243 241 241 241 237 234 234 231 228 224 224 225 220 218 219 222 228 229 229
333 332 329 328 327 327 329 329 329 330 329 330 330 328 328 327 325 326 329 331 331 330 329 328 329 330 331 328 326 326 326 328 328 325 327 329 326 319 308 307 301 290 284 276 263 243 238 251 255 257 260 264 269 276 281 281 280 276 278 286 290 290 286 279 275 268 261 258 252 248 247 245 247 246 243 239 236 232 228 226 227 223 218 217 219 223 225 226
331 330 329 328 327 328 329 329 329 328 328 330 330 328 327 327 326 327 329 331 331 331 329 328 331 333 332 327 324 326 327 330 331 328 329 331 327 317 310 312 306 297 295 292 283 261 237 251 261 264 266 270 276 281 285 284 281 280 285 292 293 293 292 286 280 270 255 261 266 259 255 253 250 249 248 246 242 238 233 228 227 226 220 216 217 221 223 224
328 327 327 327 326 326 327 328 328 328 329 330 329 328 326 327 327 327 329 330 331 331 329 330 334 333 329 325 325 329 331 332 334 331 329 330 327 321 324 316 305 303 301 298 291 277 262 255 257 265 267 269 274 279 285 286 286 288 291 292 292 292 289 286 284 278 263 264 272 270 265 264 256 248 245 245 245 243 239 233 227 226 224 217 216 219 222 225
327 326 326 325 324 325 327 328 328 329 329 329 329 329 328 329 328 328 328 329 331 332 331 331 333 330 327 328 330 334 335 333 335 336 329 328 330 333 345 332 311 314 318 313 299 284 276 271 271 278 281 282 284 287 290 290 289 291 294 293 295 295 288 284 281 277 272 271 274 273 270 271 268 259 250 243 242 242 242 240 233 226 225 220 217 218 221 224
326 325 324 323 323 326 327 328 329 329 329 329 330 330 329 329 328 327 327 329 332 332 330 330 331 330 331 334 334 336 338 334 333 337 329 329 335 338 357 350 333 343 349 336 321 312 304 298 297 296 298 299 299 302 300 295 292 291 293 294 295 295 291 289 285 277 271 271 273 274 272 272 272 270 260 247 241 239 237 239 241 233 228 224 218 217 219 221
324 322 322 322 324 327 328 329 330 330 329 330 330 330 328 327 326 327 328 330 332 330 329 330 332 334 336 336 334 336 342 336 331 336 333 335 335 332 348 351 346 6 13 350 331 330 323 311 307 304 306 308 305 307 304 297 294 293 295 295 292 291 289 290 291 284 273 268 270 272 273 272 270 268 268 257 245 241 236 234 240 240 235 230 223 218 218 220
321 318 319 323 326 327 327 328 329 330 330 330 331 328 326 327 328 330 330 330 331 330 330 333 334 337 337 336 334 336 342 338 334 339 336 334 330 322 333 342 348 1 7 353 331 327 326 315 311 310 310 310 308 307 303 297 295 297 301 296 290 288 288 290 291 288 279 271 267 268 271 273 271 270 271 267 255 246 240 235 235 240 240 236 229 222 218 219
320 316 318 325 327 325 325 327 329 330 330 331 331 328 327 330 330 331 330 328 331 331 332 335 336 337 338 336 335 337 341 340 338 340 332 329 325 312 321 335 342 348 354 352 330 319 319 315 311 310 311 313 314 311 303 296 294 297 299 291 287 285 285 289 291 287 284 279 271 267 270 275 277 281 277 270 264 257 250 242 236 235 238 239 235 228 222 220
321 318 320 325 326 324 323 325 328 328 329 332 331 330 331 332 329 329 329 329 334 333 332 335 335 337 339 337 337 338 340 341 338 339 334 330 328 311 320 337 341 342 344 345 331 314 314 315 311 311 312 311 308 303 299 296 294 295 293 289 289 287 284 287 289 286 282 280 276 270 269 274 282 294 292 274 267 263 258 252 242 234 233 235 236 234 229 225
322 321 323 325 326 325 323 324 326 327 331 333 332 331 331 330 328 328 331 333 335 332 331 332 334 339 341 336 337 338 340 341 337 334 335 331 322 309 322 337 343 342 339 337 332 320 317 315 309 305 301 297 295 298 302 301 298 294 291 291 290 289 288 286 284 286 281 277 277 274 273 276 283 296 290 270 262 260 256 253 249 237 230 230 232 233 232 231
322 322 324 325 327 327 325 325 327 329 331 331 330 330 330 330 329 329 333 336 334 329 329 332 336 341 340 335 337 341 342 342 335 332 338 337 316 308 328 349 352 345 340 338 338 336 326 311 304 305 304 305 312 319 318 310 305 303 301 300 293 288 289 286 283 282 279 278 278 278 280 278 279 293 289 268 259 253 252 251 253 243 231 228 230 231 231 231
322 322 324 326 328 329 327 326 329 330 329 326 327 331 331 331 330 331 335 336 330 326 330 334 336 340 339 335 340 345 343 339 334 333 338 336 331 348 2 8 358 344 342 342 345 342 323 306 310 322 326 326 328 331 327 318 314 313 311 308 301 294 290 287 284 280 279 285 285 284 286 276 270 279 277 269 263 253 252 250 250 246 234 226 227 228 227 226
322 322 324 325 325 327 327 328 329 330 328 326 329 333 331 328 329 331 334 333 327 325 332 335 335 340 339 336 343 348 338 334 334 334 337 334 342 8 4 356 351 347 349 356 7 359 315 311 325 332 332 331 331 331 329 324 318 312 310 309 306 303 296 291 290 285 283 290 291 289 289 278 271 275 269 264 262 256 253 249 245 243 235 226 224 224 223 220
322 321 322 322 322 324 327 329 330 331 330 329 332 333 327 325 328 330 331 332 329 327 332 336 336 340 340 337 344 345 335 337 338 334 338 337 347 6 358 351 351 351 356 4 16 17 321 323 333 332 332 333 331 331 330 331 326 314 313 313 310 306 300 295 294 290 287 290 290 288 286 281 278 278 272 265 260 253 247 244 243 242 236 228 222 221 219 217
321 320 320 321 322 323 327 330 331 333 333 332 331 329 323 323 327 330 330 332 332 327 331 335 336 340 340 338 342 342 339 342 337 332 337 339 351 5 358 351 349 349 355 3 9 6 345 340 338 331 335 337 336 336 332 335 339 327 319 317 315 311 302 296 295 290 288 286 285 285 285 286 288 284 276 262 250 249 245 242 243 244 243 235 225 220 216 214
320 319 319 320 322 324 327 330 331 334 333 330 328 325 321 322 325 329 330 331 333 330 331 334 338 341 339 338 340 341 341 337 330 331 334 339 354 5 1 352 344 346 355 4 11 6 354 352 347 338 339 345 346 340 333 337 343 338 330 325 322 320 308 300 298 293 289 284 281 283 288 295 295 287 279 258 241 242 245 242 237 234 238 239 233 224 215 211
321 319 319 319 321 324 327 328 330 332 331 328 326 324 320 319 323 328 331 332 334 334 332 334 340 343 339 337 338 339 337 330 328 334 331 333 352 3 7 354 343 351 359 2 10 12 2 354 355 348 342 346 349 344 339 343 345 341 338 335 332 328 318 306 299 294 289 284 282 281 291 304 300 289 282 261 239 236 242 242 234 225 228 235 234 229 218 209
320 320 319 319 321 323 324 326 329 330 329 328 327 323 319 321 326 329 332 334 335 336 335 335 340 343 338 334 337 338 332 326 328 334 324 323 342 4 7 355 351 1 5 360 5 15 13 358 355 355 349 349 354 352 348 347 345 342 338 337 337 330 321 310 298 292 288 284 285 285 294 309 306 292 283 261 237 234 240 242 236 225 224 230 228 228 221 209
320 320 319 318 318 320 321 324 328 330 329 328 327 323 321 324 326 327 331 336 338 339 337 335 338 341 337 334 340 342 332 322 324 328 319 318 341 1 5 1 0 5 1 359 4 13 18 5 356 358 359 1 3 0 356 352 346 341 337 338 338 330 321 312 300 295 291 288 289 292 301 314 316 303 285 260 240 237 238 241 240 231 227 228 226 228 227 214
320 319 318 318 318 318 319 321 326 329 329 328 326 323 322 321 322 327 332 335 338 338 335 334 335 338 338 338 343 344 333 315 311 326 323 325 349 357 358 2 4 3 359 358 5 12 13 7 4 6 6 8 9 5 2 358 349 343 340 338 333 324 317 309 301 299 296 290 289 294 304 317 318 304 283 260 248 242 237 236 239 236 230 227 225 226 228 220
319 318 319 319 319 319 319 320 324 327 327 327 326 322 321 321 323 330 333 332 333 334 334 334 335 337 340 342 344 343 334 317 314 336 332 327 352 355 352 359 358 358 358 357 4 12 9 10 17 18 12 9 9 6 3 360 355 351 348 340 328 319 313 304 301 302 296 290 291 296 308 324 313 299 288 275 269 260 247 237 238 238 231 226 224 223 223 221
320 319 320 320 320 320 319 320 323 324 325 326 325 322 324 325 324 328 332 330 330 332 334 336 336 339 342 343 344 343 335 324 325 343 337 321 341 351 349 357 353 348 352 355 3 8 8 17 24 21 15 11 7 5 3 2 1 359 355 349 341 331 318 304 298 298 296 294 296 299 308 319 311 304 297 283 275 267 251 239 237 239 233 228 226 223 221 220
321 321 322 322 321 320 319 319 321 323 324 324 322 323 324 323 321 326 331 330 328 331 335 339 339 341 343 341 343 343 339 330 326 335 334 326 348 356 345 352 349 342 346 354 1 3 6 22 26 18 12 8 3 1 2 4 5 3 358 355 352 343 327 311 300 295 297 297 297 299 306 317 316 313 304 280 268 265 250 236 232 236 233 228 226 224 224 222
321 321 323 323 323 323 321 320 321 322 322 321 321 323 323 321 321 326 332 331 329 330 336 340 339 339 341 340 341 344 342 333 325 327 331 340 0 359 339 346 348 347 351 354 359 0 4 15 20 17 13 7 1 360 2 6 7 4 0 356 355 350 336 322 309 299 300 303 298 296 306 321 322 316 307 288 277 274 254 233 224 228 230 227 226 227 228 228
321 322 323 324 325 325 322 321 322 322 321 320 320 321 321 320 320 325 332 334 329 329 335 339 338 337 339 340 341 343 342 332 323 328 338 349 1 356 340 344 346 351 358 357 359 2 4 6 5 4 6 5 3 1 3 7 8 6 3 358 354 352 344 333 319 306 307 310 301 294 302 315 320 318 312 296 285 277 254 230 218 219 223 225 227 229 229 230
321 321 322 322 323 324 322 320 321 321 319 317 316 316 314 316 319 324 334 335 326 325 334 338 337 337 339 340 340 341 341 335 326 332 343 347 359 358 335 338 344 351 0 3 5 5 3 1 360 1 4 6 5 3 2 5 8 7 5 1 355 352 351 342 323 310 314 313 301 295 300 308 313 317 318 304 288 276 251 234 224 221 223 227 231 233 233 232
321 321 321 321 321 321 320 318 318 317 315 314 313 312 313 318 322 326 332 333 323 323 333 337 337 339 340 341 340 339 340 337 328 333 339 340 351 353 315 328 344 348 358 7 11 10 2 357 358 3 6 7 6 3 2 4 6 5 4 4 1 357 357 354 335 319 318 310 300 296 297 302 308 310 315 308 290 276 257 241 236 233 233 235 236 237 238 236
323 323 322 320 319 319 319 318 317 316 317 316 313 313 316 320 322 324 328 329 323 322 329 336 339 340 342 343 342 339 339 335 324 326 335 337 343 341 308 320 341 342 353 6 11 12 5 357 359 4 5 5 5 2 3 6 5 3 3 6 7 7 7 6 354 336 319 303 298 298 296 299 305 306 308 309 295 278 264 252 244 240 240 242 243 242 241 239
325 325 324 322 319 320 321 320 318 320 321 320 315 314 317 318 320 323 326 323 318 318 325 335 341 342 342 344 343 339 338 333 321 322 333 335 334 338 326 309 324 335 342 352 357 359 0 358 2 6 5 4 4 1 3 7 4 3 4 6 9 13 14 11 3 350 336 317 308 308 304 302 305 305 304 309 303 283 265 258 254 250 247 247 249 247 243 239
327 326 326 324 322 323 323 320 318 320 321 318 313 312 315 317 317 321 323 316 310 315 324 333 343 345 344 344 343 340 339 331 319 321 332 329 326 334 341 312 302 321 325 326 331 338 348 353 358 5 5 3 2 359 2 5 2 3 7 8 11 16 16 11 3 353 347 339 326 321 315 310 309 306 303 310 309 291 266 257 256 256 254 252 254 253 247 241
328 326 324 324 323 324 324 320 319 320 317 312 309 310 313 316 315 318 323 317 309 315 324 332 343 347 345 343 341 340 343 334 318 321 327 324 322 330 334 313 286 299 306 302 310 329 340 345 353 2 2 1 1 360 1 2 360 3 10 11 14 18 18 13 3 355 356 355 346 339 335 332 329 315 299 306 313 295 270 253 249 250 254 253 253 253 249 242
327 325 320 318 320 321 321 320 318 317 315 310 309 311 313 316 316 318 323 319 308 313 325 333 340 345 344 342 339 341 348 346 330 324 324 323 325 328 331 314 287 293 304 299 303 318 329 339 350 354 354 358 360 359 0 359 356 3 12 13 15 18 17 14 8 2 3 2 359 359 352 347 349 340 311 307 312 288 260 247 245 247 252 253 252 250 246 239
326 323 316 312 315 318 319 318 315 314 315 311 309 311 313 317 321 321 322 320 309 311 322 330 336 341 343 343 342 344 348 350 348 339 329 324 327 330 331 319 299 296 305 309 310 314 321 336 346 345 347 354 356 356 356 352 354 5 12 11 14 17 16 17 16 11 10 10 14 19 6 346 348 351 339 320 308 277 249 241 242 247 254 260 259 250 240 233
Height
5830 5829 5828 5828 5827 5827 5826 5825 5824 5823 5822 5822 5821 5819 5818 5817 5816 5815 5813 5812 5811 5809 5807 5806 5804 5803 5802 5800 5799 5797 5796 5794 5793 5792 5790 5789 5787 5786 5784 5783 5781 5780 5779 5778 5777 5776 5775 5775 5774 5774 5774 5773 5774 5774 5773 5774 5774 5773 5774 5773 5774 5777 5777 5777 5779 5782 5783 5785 5787 5791 5795 5797 5800 5804 5808 5812 5816 5819 5821 5821 5819 5818 5820 5821 5822 5822 5823 5824
5828 5828 5827 5826 5826 5825 5824 5823 5822 5821 5821 5820 5819 5817 5816 5815 5814 5812 5811 5809 5808 5806 5805 5803 5802 5800 5799 5797 5796 5794 5792 5791 5789 5788 5786 5785 5783 5781 5780 5778 5777 5776 5775 5773 5772 5771 5770 5770 5769 5769 5769 5768 5769 5769 5769 5769 5769 5769 5768 5768 5771 5772 5770 5772 5775 5777 5778 5779 5782 5785 5789 5792 5794 5799 5802 5804 5809 5812 5815 5815 5814 5814 5815 5817 5819 5819 5819 5822
5827 5826 5825 5825 5824 5823 5822 5821 5821 5820 5819 5818 5817 5815 5814 5813 5811 5810 5808 5806 5805 5803 5802 5800 5799 5797 5796 5794 5793 5791 5789 5787 5785 5784 5782 5781 5779 5777 5775 5774 5773 5771 5770 5769 5767 5766 5765 5765 5764 5764 5764 5763 5764 5764 5764 5764 5764 5764 5763 5765 5767 5765 5764 5769 5771 5772 5773 5773 5775 5778 5783 5787 5789 5793 5796 5799 5802 5805 5810 5810 5809 5810 5810 5812 5814 5815 5816 5819
5826 5825 5824 5823 5823 5822 5821 5820 5819 5818 5817 5816 5815 5813 5812 5811 5809 5807 5806 5804 5802 5800 5799 5797 5796 5794 5793 5791 5789 5787 5785 5783 5781 5780 5778 5776 5774 5773 5771 5770 5768 5767 5765 5764 5763 5761 5760 5759 5759 5759 5759 5758 5758 5759 5759 5759 5759 5759 5760 5761 5761 5757 5759 5765 5765 5765 5767 5768 5770 5772 5776 5781 5784 5788 5790 5793 5796 5800 5806 5806 5805 5805 5806 5808 5809 5810 5813 5814
5825 5824 5823 5822 5821 5820 5819 5818 5817 5816 5815 5814 5813 5811 5810 5808 5807 5805 5803 5801 5799 5798 5796 5794 5793 5791 5790 5788 5786 5783 5781 5779 5777 5775 5773 5771 5770 5768 5766 5765 5763 5762 5761 5759 5758 5756 5755 5754 5754 5754 5754 5753 5753 5754 5754 5754 5754 5755 5756 5755 5754 5752 5755 5759 5759 5760 5762 5763 5765 5767 5771 5774 5778 5782 5785 5788 5791 5796 5801 5801 5800 5801 5802 5803 5804 5805 5808 5810
5824 5823 5822 5821 5820 5819 5818 5817 5816 5815 5813 5812 5811 5809 5808 5806 5804 5802 5800 5799 5797 5795 5793 5792 5790 5788 5786 5785 5782 5779 5777 5775 5773 5771 5769 5767 5765 5764 5762 5760 5758 5757 5756 5754 5753 5752 5751 5750 5749 5748 5749 5748 5748 5749 5749 5749 5749 5750 5751 5749 5747 5747 5750 5753 5754 5754 5755 5757 5759 5762 5765 5767 5770 5776 5781 5783 5786 5790 5794 5795 5796 5798 5799 5800 5801 5801 5803 5807
5823 5822 5821 5820 5819 5818 5817 5815 5814 5813 5812 5810 5809 5807 5806 5804 5802 5800 5798 5796 5794 5792 5790 5789 5787 5785 5783 5781 5779 5776 5773 5771 5768 5766 5765 5763 5761 5759 5757 5755 5754 5752 5751 5749 5748 5747 5746 5744 5744 5744 5744 5744 5744 5744 5743 5744 5744 5745 5746 5744 5743 5742 5744 5747 5747 5748 5748 5750 5753 5755 5758 5760 5762 5770 5776 5778 5781 5786 5789 5791 5791 5793 5795 5796 5797 5797 5800 5804
5822 5821 5820 5819 5818 5817 5815 5814 5813 5811 5810 5808 5807 5805 5803 5801 5799 5797 5795 5793 5791 5789 5788 5786 5784 5782 5780 5777 5775 5772 5769 5767 5764 5763 5761 5759 5757 5755 5753 5751 5749 5747 5746 5744 5743 5742 5740 5740 5740 5740 5740 5739 5739 5739 5738 5738 5738 5739 5740 5739 5738 5738 5740 5742 5742 5744 5743 5744 5747 5748 5750 5754 5756 5761 5770 5775 5779 5783 5785 5786 5787 5787 5790 5791 5793 5795 5798 5802
5821 5820 5819 5818 5816 5815 5814 5813 5811 5809 5808 5806 5804 5802 5800 5798 5796 5794 5792 5790 5789 5787 5785 5783 5781 5779 5776 5774 5771 5768 5766 5763 5760 5759 5757 5754 5752 5750 5748 5746 5745 5743 5741 5740 5738 5737 5736 5736 5736 5736 5736 5735 5735 5734 5733 5734 5733 5733 5734 5735 5735 5736 5737 5738 5739 5741 5740 5741 5744 5746 5747 5749 5752 5754 5763 5772 5775 5778 5781 5782 5782 5781 5784 5787 5789 5791 5794 5798
5820 5819 5818 5817 5815 5814 5812 5811 5809 5807 5805 5803 5802 5800 5798 5796 5793 5791 5789 5788 5786 5784 5782 5780 5778 5775 5772 5770 5767 5765 5763 5760 5757 5755 5753 5750 5747 5745 5743 5741 5740 5738 5737 5735 5734 5733 5732 5732 5731 5731 5731 5730 5730 5730 5729 5729 5729 5729 5730 5731 5731 5732 5733 5733 5735 5737 5737 5739 5741 5743 5744 5746 5749 5750 5757 5767 5771 5774 5777 5778 5778 5778 5780 5784 5785 5787 5789 5792
5819 5818 5817 5815 5814 5812 5810 5809 5807 5805 5803 5801 5799 5797 5795 5793 5791 5789 5787 5785 5783 5781 5779 5777 5774 5771 5769 5766 5764 5761 5759 5757 5754 5751 5749 5746 5743 5741 5739 5737 5735 5734 5732 5731 5729 5729 5728 5727 5727 5727 5727 5727 5727 5726 5725 5726 5726 5726 5726 5727 5727 5727 5729 5730 5731 5733 5733 5735 5737 5738 5740 5742 5746 5748 5753 5762 5766 5770 5773 5774 5775 5776 5777 5780 5780 5782 5785 5788
5818 5817 5815 5814 5812 5810 5808 5807 5805 5803 5801 5799 5797 5795 5793 5791 5789 5787 5785 5783 5781 5778 5776 5773 5771 5768 5766 5763 5760 5758 5755 5753 5750 5748 5745 5742 5739 5737 5734 5732 5731 5730 5728 5727 5726 5725 5725 5724 5724 5724 5724 5724 5723 5723 5723 5722 5723 5723 5723 5723 5724 5724 5725 5727 5728 5729 5729 5731 5733 5733 5734 5738 5742 5745 5748 5754 5759 5764 5768 5768 5769 5771 5772 5774 5776 5777 5780 5784
5817 5815 5814 5812 5810 5808 5806 5805 5803 5801 5799 5797 5795 5793 5790 5788 5786 5784 5782 5780 5778 5776 5773 5770 5768 5765 5762 5759 5757 5754 5752 5749 5746 5744 5741 5737 5735 5733 5730 5728 5727 5726 5724 5723 5722 5722 5721 5721 5721 5721 5721 5721 5721 5721 5721 5720 5720 5720 5720 5720 5721 5721 5723 5724 5724 5724 5725 5727 5730 5729 5727 5730 5736 5740 5743 5747 5751 5757 5761 5762 5762 5764 5766 5769 5771 5773 5775 5779
5815 5813 5812 5810 5808 5807 5805 5803 5801 5799 5797 5795 5793 5791 5788 5786 5784 5782 5780 5778 5776 5773 5770 5768 5765 5762 5759 5756 5753 5751 5748 5745 5742 5739 5736 5733 5730 5728 5727 5724 5722 5722 5721 5720 5720 5719 5719 5718 5718 5718 5719 5719 5719 5719 5719 5718 5718 5718 5718 5718 5718 5719 5720 5721 5720 5720 5722 5724 5726 5724 5721 5724 5730 5734 5738 5740 5743 5747 5753 5757 5757 5758 5761 5763 5766 5767 5769 5774
5813 5812 5810 5808 5806 5804 5803 5801 5798 5796 5794 5793 5791 5789 5786 5784 5782 5780 5778 5775 5773 5770 5767 5765 5762 5759 5756 5753 5751 5748 5745 5742 5739 5735 5732 5728 5726 5724 5723 5721 5719 5719 5718 5717 5717 5717 5716 5716 5717 5717 5717 5717 5717 5717 5717 5717 5717 5716 5717 5717 5716 5717 5717 5717 5717 5717 5718 5720 5720 5719 5716 5719 5725 5728 5731 5732 5735 5738 5743 5749 5752 5754 5756 5758 5761 5763 5765 5769
5812 5810 5808 5806 5804 5802 5801 5799 5797 5794 5792 5790 5789 5787 5784 5782 5779 5777 5775 5773 5771 5768 5764 5761 5759 5756 5753 5750 5748 5745 5742 5738 5736 5732 5728 5725 5722 5721 5720 5718 5717 5716 5715 5715 5714 5714 5715 5715 5715 5715 5715 5716 5715 5715 5716 5715 5715 5714 5714 5715 5714 5714 5714 5715 5715 5714 5715 5715 5715 5714 5712 5714 5717 5719 5721 5723 5726 5729 5733 5738 5744 5749 5752 5754 5758 5760 5762 5765
5810 5808 5806 5804 5802 5801 5799 5797 5795 5793 5790 5788 5786 5784 5782 5779 5777 5775 5773 5771 5768 5765 5762 5758 5756 5754 5750 5747 5744 5742 5739 5735 5732 5728 5725 5722 5720 5718 5716 5715 5714 5713 5713 5713 5712 5712 5713 5713 5714 5714 5714 5714 5714 5714 5714 5714 5713 5712 5712 5713 5712 5712 5712 5712 5713 5712 5712 5712 5711 5710 5709 5709 5711 5713 5714 5717 5719 5721 5725 5729 5735 5742 5747 5750 5755 5756 5758 5760
5808 5807 5805 5803 5801 5799 5797 5795 5792 5791 5788 5786 5784 5781 5779 5777 5775 5773 5771 5768 5765 5762 5759 5756 5753 5751 5747 5743 5741 5738 5735 5731 5727 5723 5721 5719 5717 5715 5714 5713 5712 5711 5711 5711 5710 5711 5712 5712 5712 5712 5712 5712 5712 5712 5712 5712 5711 5711 5710 5710 5710 5710 5709 5709 5710 5710 5709 5708 5707 5707 5706 5705 5707 5710 5711 5714 5715 5717 5721 5724 5728 5736 5741 5744 5749 5751 5753 5756
5807 5805 5803 5801 5799 5797 5795 5793 5790 5788 5786 5784 5782 5779 5777 5775 5773 5771 5768 5765 5762 5759 5756 5753 5750 5748 5744 5740 5737 5734 5730 5727 5723 5720 5718 5716 5714 5713 5712 5711 5710 5709 5709 5709 5709 5710 5710 5710 5710 5710 5710 5710 5710 5709 5710 5710 5709 5709 5708 5708 5708 5707 5707 5707 5707 5706 5705 5705 5705 5705 5703 5702 5704 5707 5709 5711 5713 5714 5718 5721 5724 5732 5736 5739 5743 5746 5748 5751
5806 5804 5801 5799 5797 5795 5793 5791 5789 5786 5784 5782 5779 5776 5774 5772 5770 5768 5765 5762 5760 5757 5753 5750 5748 5744 5741 5737 5734 5730 5727 5724 5721 5717 5716 5714 5712 5711 5710 5709 5709 5708 5708 5707 5708 5709 5710 5709 5708 5708 5708 5708 5708 5707 5707 5707 5706 5706 5706 5705 5705 5704 5705 5705 5704 5704 5703 5701 5702 5702 5700 5700 5702 5704 5707 5708 5709 5711 5714 5717 5720 5726 5731 5733 5735 5738 5741 5743
5804 5802 5800 5797 5795 5793 5791 5789 5786 5784 5782 5780 5777 5774 5772 5770 5767 5765 5762 5760 5757 5754 5751 5748 5745 5742 5738 5735 5731 5728 5724 5721 5719 5715 5713 5712 5711 5710 5709 5708 5707 5707 5707 5706 5706 5707 5708 5708 5707 5707 5706 5706 5706 5705 5704 5704 5704 5703 5703 5702 5702 5701 5701 5701 5701 5701 5701 5698 5698 5699 5698 5698 5700 5701 5703 5704 5705 5707 5709 5712 5715 5720 5726 5729 5730 5731 5733 5736
5802 5800 5798 5796 5793 5791 5789 5787 5784 5782 5780 5778 5775 5772 5770 5768 5766 5763 5760 5757 5755 5752 5748 5745 5743 5739 5737 5733 5729 5725 5722 5718 5716 5714 5712 5711 5710 5709 5708 5707 5706 5706 5706 5706 5705 5706 5707 5706 5706 5705 5705 5704 5704 5703 5702 5701 5701 5700 5699 5698 5698 5699 5697 5697 5697 5697 5697 5695 5694 5695 5695 5695 5697 5698 5698 5699 5700 5702 5705 5707 5710 5714 5720 5724 5726 5726 5727 5729
5801 5798 5796 5794 5791 5789 5787 5784 5782 5779 5777 5775 5772 5770 5767 5765 5763 5760 5758 5755 5752 5749 5746 5742 5740 5737 5735 5731 5726 5722 5719 5716 5714 5713 5711 5710 5709 5708 5707 5707 5706 5705 5705 5705 5705 5704 5704 5704 5703 5703 5702 5701 5701 5700 5699 5698 5697 5696 5696 5695 5695 5695 5694 5693 5694 5694 5693 5691 5691 5691 5691 5691 5693 5694 5694 5695 5696 5697 5699 5701 5704 5707 5711 5716 5720 5721 5723 5725
5799 5796 5794 5791 5789 5787 5785 5782 5780 5777 5775 5772 5770 5767 5765 5763 5761 5758 5756 5753 5749 5746 5744 5741 5738 5735 5731 5727 5723 5720 5717 5714 5712 5712 5710 5708 5707 5707 5706 5706 5705 5705 5705 5704 5703 5703 5703 5702 5701 5700 5699 5698 5698 5698 5697 5695 5695 5694 5693 5692 5691 5691 5690 5689 5690 5690 5689 5688 5687 5687 5686 5687 5690 5690 5689 5691 5691 5692 5694 5696 5698 5701 5704 5708 5712 5714 5717 5720
5797 5794 5791 5789 5787 5785 5783 5780 5778 5775 5772 5770 5768 5765 5763 5761 5759 5756 5753 5750 5747 5745 5742 5739 5735 5732 5728 5724 5721 5718 5716 5713 5711 5710 5709 5707 5706 5705 5705 5705 5705 5705 5704 5703 5702 5702 5702 5700 5699 5698 5697 5697 5696 5695 5694 5692 5691 5691 5691 5690 5688 5688 5687 5686 5685 5685 5684 5684 5684 5682 5681 5683 5685 5685 5685 5686 5686 5686 5689 5691 5692 5695 5698 5701 5706 5710 5711 5714
5795 5792 5789 5786 5784 5783 5780 5778 5775 5773 5770 5768 5765 5763 5761 5759 5756 5753 5750 5747 5745 5742 5739 5736 5732 5729 5726 5722 5719 5716 5714 5712 5710 5708 5707 5706 5705 5704 5704 5704 5704 5704 5703 5703 5701 5701 5701 5699 5697 5696 5695 5694 5694 5693 5692 5689 5687 5688 5688 5687 5685 5684 5683 5682 5682 5680 5679 5679 5681 5679 5676 5677 5680 5681 5682 5682 5682 5682 5684 5686 5688 5690 5693 5695 5700 5705 5708 5710
5793 5790 5787 5785 5783 5780 5778 5776 5773 5770 5768 5765 5763 5761 5758 5756 5753 5751 5748 5745 5743 5739 5736 5733 5729 5727 5724 5720 5717 5714 5712 5710 5708 5707 5706 5706 5705 5704 5703 5703 5703 5702 5703 5702 5700 5699 5698 5697 5695 5693 5692 5692 5691 5690 5689 5686 5684 5685 5685 5683 5682 5681 5680 5678 5678 5676 5675 5675 5675 5674 5673 5673 5675 5678 5679 5678 5678 5679 5680 5681 5683 5685 5688 5690 5694 5700 5705 5707
5791 5788 5785 5783 5781 5778 5775 5773 5771 5768 5766 5763 5761 5758 5755 5753 5750 5749 5746 5743 5740 5737 5733 5731 5728 5725 5722 5718 5715 5712 5710 5708 5706 5706 5705 5704 5704 5703 5703 5703 5702 5701 5701 5701 5699 5697 5696 5694 5693 5691 5690 5690 5688 5687 5685 5684 5682 5681 5681 5679 5678 5677 5676 5675 5674 5672 5672 5671 5670 5670 5670 5670 5671 5673 5674 5673 5673 5674 5676 5676 5677 5679 5682 5684 5688 5692 5698 5702
5788 5786 5783 5781 5779 5776 5773 5771 5768 5765 5763 5760 5758 5755 5753 5751 5748 5746 5744 5740 5737 5735 5732 5729 5726 5723 5720 5716 5713 5711 5709 5707 5705 5705 5704 5703 5703 5703 5703 5703 5702 5701 5700 5699 5698 5696 5694 5692 5690 5689 5688 5687 5686 5685 5683 5682 5680 5679 5678 5676 5674 5673 5671 5671 5670 5669 5669 5667 5665 5666 5667 5668 5667 5668 5669 5668 5668 5669 5671 5671 5670 5671 5674 5677 5680 5685 5690 5695
5785 5783 5781 5778 5776 5774 5771 5768 5766 5763 5760 5758 5756 5753 5751 5748 5746 5743 5741 5738 5735 5733 5730 5727 5724 5721 5718 5714 5712 5709 5707 5706 5704 5703 5703 5703 5702 5702 5703 5703 5702 5700 5699 5698 5696 5694 5692 5689 5687 5686 5685 5684 5684 5683 5682 5679 5677 5676 5674 5673 5671 5669 5668 5667 5666 5666 5665 5662 5662 5663 5665 5665 5663 5663 5664 5664 5664 5664 5665 5666 5666 5666 5667 5670 5673 5677 5682 5687
5782 5780 5779 5777 5774 5771 5768 5766 5764 5762 5759 5756 5754 5751 5748 5746 5743 5741 5739 5737 5734 5731 5728 5725 5721 5719 5716 5713 5710 5708 5706 5704 5703 5702 5702 5701 5702 5702 5702 5702 5701 5700 5699 5697 5695 5693 5690 5687 5685 5684 5683 5682 5681 5681 5679 5677 5674 5672 5670 5669 5667 5666 5665 5663 5662 5663 5660 5658 5660 5660 5661 5661 5659 5660 5661 5661 5660 5660 5661 5662 5662 5662 5662 5664 5666 5670 5675 5679
5779 5777 5776 5774 5772 5769 5767 5764 5762 5760 5757 5754 5751 5748 5745 5744 5742 5739 5737 5735 5732 5729 5727 5723 5720 5718 5715 5711 5709 5707 5705 5704 5702 5701 5701 5700 5700 5700 5700 5700 5699 5698 5697 5696 5695 5692 5688 5685 5685 5683 5682 5680 5679 5678 5677 5675 5672 5669 5667 5665 5663 5662 5661 5659 5659 5659 5656 5656 5657 5656 5656 5655 5654 5656 5657 5657 5657 5656 5656 5657 5657 5657 5657 5658 5660 5663 5668 5672
5777 5774 5772 5771 5769 5767 5764 5762 5760 5757 5754 5751 5748 5745 5743 5741 5740 5738 5735 5734 5730 5727 5725 5722 5718 5716 5713 5709 5708 5706 5704 5702 5701 5700 5699 5699 5698 5698 5698 5697 5696 5695 5694 5693 5693 5691 5688 5685 5684 5683 5682 5680 5677 5675 5673 5673 5672 5668 5664 5662 5660 5659 5657 5655 5655 5654 5652 5653 5653 5652 5651 5648 5649 5651 5651 5652 5652 5651 5651 5652 5652 5653 5653 5653 5654 5656 5661 5666
5774 5772 5769 5767 5765 5763 5761 5759 5756 5754 5751 5748 5745 5744 5742 5739 5738 5736 5733 5731 5729 5726 5723 5720 5717 5714 5711 5708 5706 5705 5703 5701 5700 5699 5698 5698 5698 5698 5697 5696 5695 5694 5693 5692 5691 5689 5687 5686 5683 5681 5681 5679 5676 5672 5669 5668 5668 5666 5662 5660 5657 5656 5654 5651 5651 5650 5649 5649 5649 5648 5646 5643 5644 5645 5645 5646 5647 5646 5647 5647 5648 5649 5649 5649 5649 5650 5655 5661
5772 5769 5767 5765 5763 5760 5758 5755 5753 5751 5748 5745 5744 5742 5740 5737 5736 5734 5732 5730 5728 5724 5721 5718 5716 5712 5709 5707 5705 5703 5702 5700 5699 5698 5697 5697 5697 5698 5698 5696 5695 5694 5692 5692 5691 5689 5686 5685 5683 5678 5676 5675 5674 5671 5667 5665 5664 5663 5660 5657 5655 5653 5651 5648 5647 5646 5645 5644 5643 5644 5642 5640 5640 5640 5639 5639 5640 5641 5641 5642 5642 5643 5644 5644 5645 5646 5649 5654
5770 5768 5765 5763 5761 5759 5756 5753 5751 5749 5746 5743 5742 5740 5737 5735 5734 5732 5730 5728 5726 5723 5720 5716 5714 5711 5708 5705 5704 5702 5700 5698 5698 5697 5696 5696 5697 5697 5697 5696 5694 5693 5692 5691 5691 5689 5685 5683 5682 5678 5674 5673 5672 5670 5666 5663 5662 5660 5657 5655 5652 5650 5648 5646 5644 5643 5641 5639 5638 5639 5638 5637 5635 5634 5633 5632 5632 5634 5635 5636 5638 5638 5639 5640 5640 5641 5642 5645
5768 5766 5763 5761 5759 5757 5754 5752 5750 5748 5744 5741 5740 5738 5735 5733 5731 5730 5728 5726 5724 5721 5718 5715 5712 5710 5707 5705 5703 5701 5698 5697 5696 5696 5695 5695 5696 5696 5696 5695 5693 5692 5691 5690 5689 5689 5685 5681 5680 5678 5675 5673 5671 5668 5665 5662 5660 5658 5655 5652 5650 5647 5645 5644 5641 5639 5638 5635 5633 5635 5635 5633 5630 5628 5627 5626 5627 5629 5630 5632 5634 5635 5635 5636 5636 5637 5638 5640
5766 5764 5762 5759 5757 5755 5752 5749 5747 5745 5742 5739 5737 5735 5733 5731 5729 5727 5725 5724 5722 5720 5717 5714 5711 5709 5707 5704 5702 5700 5697 5696 5695 5695 5694 5694 5694 5694 5694 5693 5692 5691 5690 5689 5688 5687 5685 5682 5679 5677 5675 5673 5671 5668 5665 5662 5658 5655 5652 5649 5647 5644 5642 5641 5639 5636 5635 5631 5629 5631 5632 5630 5627 5624 5623 5623 5624 5625 5626 5627 5628 5630 5631 5631 5632 5634 5636 5638
5763 5761 5759 5757 5755 5752 5749 5746 5744 5742 5739 5736 5735 5733 5731 5729 5728 5726 5723 5721 5720 5718 5716 5713 5710 5708 5706 5703 5700 5698 5696 5695 5695 5694 5693 5693 5693 5693 5692 5692 5691 5690 5689 5688 5687 5685 5683 5682 5679 5675 5673 5672 5670 5668 5665 5662 5658 5654 5650 5647 5645 5642 5640 5638 5636 5634 5632 5628 5626 5627 5628 5627 5624 5621 5620 5620 5621 5621 5622 5623 5624 5625 5627 5628 5629 5631 5633 5635
5760 5758 5756 5754 5751 5748 5746 5743 5741 5739 5736 5734 5733 5731 5730 5728 5725 5724 5722 5720 5718 5717 5715 5712 5709 5707 5704 5701 5699 5697 5695 5694 5694 5693 5692 5692 5692 5692 5691 5691 5690 5689 5688 5687 5686 5684 5683 5681 5678 5675 5673 5671 5669 5666 5663 5660 5656 5652 5649 5647 5644 5641 5638 5636 5633 5632 5629 5626 5624 5623 5624 5623 5620 5618 5617 5617 5617 5618 5619 5620 5621 5621 5622 5624 5626 5627 5628 5631
5757 5754 5752 5750 5747 5745 5742 5740 5738 5736 5733 5731 5730 5729 5727 5726 5723 5722 5720 5718 5717 5715 5713 5711 5708 5705 5702 5700 5698 5696 5694 5693 5692 5692 5692 5692 5692 5691 5690 5690 5689 5688 5688 5686 5685 5684 5682 5680 5677 5675 5673 5671 5668 5664 5662 5659 5655 5651 5648 5645 5642 5638 5635 5632 5629 5628 5626 5623 5621 5620 5620 5619 5616 5614 5613 5612 5612 5612 5613 5615 5617 5617 5619 5621 5623 5624 5624 5627
5753 5751 5749 5747 5744 5742 5739 5737 5735 5733 5731 5729 5727 5726 5725 5724 5722 5720 5719 5717 5715 5713 5712 5709 5706 5704 5701 5699 5697 5695 5693 5692 5691 5691 5691 5691 5691 5691 5690 5689 5689 5688 5686 5685 5683 5682 5681 5679 5676 5674 5672 5670 5667 5665 5662 5658 5654 5650 5646 5643 5639 5635 5632 5629 5626 5624 5622 5621 5619 5618 5617 5617 5614 5610 5609 5608 5606 5606 5606 5608 5611 5613 5614 5616 5618 5620 5621 5622
5751 5749 5747 5744 5742 5739 5736 5733 5732 5730 5728 5726 5725 5724 5723 5722 5720 5719 5717 5715 5714 5712 5710 5707 5705 5702 5700 5697 5695 5694 5692 5691 5690 5689 5690 5690 5690 5690 5689 5688 5687 5686 5685 5683 5682 5680 5679 5677 5676 5675 5674 5671 5669 5666 5662 5657 5653 5649 5645 5641 5637 5633 5630 5626 5623 5621 5619 5618 5617 5615 5614 5614 5611 5608 5607 5605 5604 5603 5602 5603 5606 5608 5610 5612 5614 5616 5617 5619
5748 5746 5744 5742 5739 5736 5733 5731 5730 5728 5726 5724 5723 5721 5720 5719 5718 5717 5716 5714 5712 5711 5709 5707 5704 5701 5699 5696 5694 5692 5691 5690 5689 5688 5688 5688 5689 5688 5687 5687 5686 5684 5683 5682 5680 5678 5677 5675 5674 5673 5671 5669 5666 5663 5659 5656 5652 5649 5645 5641 5636 5633 5628 5623 5620 5619 5616 5615 5614 5612 5610 5611 5609 5606 5605 5603 5602 5602 5602 5602 5604 5606 5608 5609 5611 5612 5614 5615
5746 5743 5741 5739 5736 5734 5731 5729 5727 5726 5724 5722 5722 5720 5719 5717 5716 5715 5714 5712 5711 5709 5708 5706 5703 5700 5698 5695 5693 5691 5690 5689 5687 5687 5687 5687 5687 5687 5686 5685 5684 5683 5682 5681 5679 5678 5676 5674 5672 5670 5667 5664 5661 5658 5655 5653 5651 5648 5645 5641 5636 5632 5627 5622 5619 5617 5615 5613 5612 5609 5607 5608 5607 5605 5603 5602 5601 5602 5603 5603 5604 5606 5607 5608 5609 5610 5611 5612
5744 5740 5737 5735 5733 5731 5729 5727 5725 5724 5723 5721 5720 5719 5717 5716 5714 5712 5711 5711 5709 5708 5706 5704 5702 5700 5697 5694 5692 5690 5689 5687 5686 5685 5685 5685 5686 5685 5684 5684 5683 5682 5681 5680 5678 5678 5676 5674 5672 5669 5667 5665 5663 5660 5657 5653 5650 5647 5644 5640 5635 5631 5627 5622 5619 5617 5614 5612 5610 5608 5605 5605 5605 5603 5602 5601 5600 5600 5601 5602 5603 5605 5606 5606 5607 5608 5608 5609
5741 5738 5735 5732 5729 5727 5726 5724 5723 5722 5721 5720 5718 5717 5716 5714 5713 5711 5709 5709 5708 5706 5705 5703 5701 5698 5696 5693 5691 5689 5687 5686 5685 5684 5684 5684 5684 5684 5683 5683 5682 5681 5680 5679 5678 5677 5676 5674 5672 5669 5667 5666 5663 5661 5659 5654 5650 5647 5643 5639 5635 5630 5626 5622 5619 5616 5614 5611 5609 5607 5604 5602 5602 5601 5599 5598 5598 5597 5598 5599 5600 5601 5603 5603 5604 5605 5606 5606
5737 5734 5732 5730 5728 5725 5723 5721 5720 5719 5718 5717 5716 5715 5714 5712 5711 5710 5708 5707 5706 5705 5703 5702 5700 5697 5695 5693 5691 5689 5687 5685 5684 5683 5683 5683 5683 5683 5683 5682 5681 5680 5679 5678 5677 5677 5676 5674 5672 5669 5667 5665 5663 5661 5658 5655 5651 5648 5643 5638 5633 5629 5625 5622 5619 5616 5614 5611 5607 5605 5602 5600 5598 5598 5596 5595 5594 5594 5594 5595 5597 5598 5599 5600 5600 5602 5603 5603
5734 5731 5728 5727 5726 5724 5722 5720 5718 5717 5716 5715 5714 5713 5712 5711 5709 5709 5708 5706 5705 5703 5702 5700 5699 5696 5694 5692 5690 5688 5687 5685 5683 5682 5682 5682 5682 5681 5681 5681 5680 5679 5678 5677 5677 5676 5675 5674 5671 5669 5667 5665 5663 5661 5658 5655 5653 5649 5644 5639 5633 5629 5624 5622 5619 5616 5613 5610 5606 5603 5600 5597 5595 5594 5594 5592 5591 5591 5591 5592 5593 5594 5595 5595 5596 5597 5598 5599
5731 5728 5725 5724 5723 5721 5720 5719 5717 5716 5715 5714 5713 5711 5710 5710 5708 5707 5706 5705 5703 5702 5700 5699 5697 5695 5693 5691 5689 5688 5686 5685 5683 5681 5681 5681 5681 5680 5679 5679 5678 5678 5677 5676 5675 5674 5673 5672 5670 5668 5666 5665 5663 5660 5657 5655 5653 5650 5645 5641 5636 5630 5627 5623 5619 5615 5612 5609 5606 5602 5598 5595 5593 5591 5590 5590 5589 5588 5588 5589 5590 5590 5591 5591 5591 5591 5592 5594
5729 5726 5723 5721 5721 5719 5718 5716 5715 5714 5713 5712 5711 5710 5708 5708 5707 5705 5705 5704 5702 5700 5699 5697 5695 5694 5693 5691 5689 5687 5685 5684 5683 5681 5680 5680 5680 5679 5678 5677 5677 5676 5675 5674 5673 5672 5671 5670 5668 5667 5666 5664 5661 5659 5657 5654 5653 5649 5645 5642 5637 5632 5629 5625 5620 5615 5611 5608 5605 5601 5597 5593 5591 5589 5587 5587 5587 5587 5587 5587 5587 5587 5587 5587 5586 5586 5586 5587
5726 5724 5721 5719 5719 5718 5716 5714 5713 5712 5712 5711 5710 5708 5707 5706 5705 5703 5702 5702 5701 5699 5698 5696 5695 5693 5692 5690 5688 5686 5684 5683 5682 5681 5680 5679 5679 5678 5677 5676 5676 5675 5673 5672 5671 5670 5669 5667 5666 5665 5664 5662 5660 5658 5656 5655 5652 5647 5643 5641 5638 5634 5630 5626 5622 5618 5613 5609 5606 5602 5598 5594 5590 5588 5586 5585 5585 5586 5586 5586 5586 5585 5584 5583 5583 5581 5581 5582